Hourly Data Report for February 17, 2017

All times are specified in Local Standard Time (LST). Add 1 hour to adjust for Daylight Saving Time where and when it is observed.

TORONTO CITY
ONTARIO

43°40'00.000" N
79°24'00.000" W
112.50 m
6158355
71508
XTO

Download Data

Hourly Data (February 2017)
Hourly Data Report for February 17, 2017
TIME Temp Definition
°C
Dew Point Definition
°C
Rel Hum Definition
%
Wind Dir Definition
10's deg

Wind Spd Definition
km/h
Visibility Definition
km
Stn Press Definition
kPa
Hmdx Definition


Wind Chill Definition


Weather Definition


00:00 -6.4 -10.4 73 LegendMM LegendMM   100.04     LegendNANA
01:00 -6.2 -10.0 75 LegendMM LegendMM   100.02     LegendNANA
02:00 -6.2 -10.1 74 LegendMM LegendMM   100.02     LegendNANA
03:00 -5.8 -9.6 74 LegendMM LegendMM   100.01     LegendNANA
04:00 -5.6 -9.7 73 LegendMM LegendMM   100.00     LegendNANA
05:00 -5.7 -9.8 73 LegendMM LegendMM   99.92     LegendNANA
06:00 -5.7 -9.7 73 LegendMM LegendMM   99.90     LegendNANA
07:00 -5.3 -9.2 74 LegendMM LegendMM   99.93     LegendNANA
08:00 -5.2 -9.5 72 LegendMM LegendMM   99.93     LegendNANA
09:00 -4.0 -8.9 69 LegendMM LegendMM   99.96     LegendNANA
10:00 -2.9 -8.7 64 LegendMM LegendMM   99.97     LegendNANA
11:00 -2.2 -7.9 65 LegendMM LegendMM   99.96     LegendNANA
12:00 -1.0 -7.9 59 LegendMM LegendMM   99.91     LegendNANA
13:00 -0.1 -7.8 56 LegendMM LegendMM   99.83     LegendNANA
14:00 0.1 -7.2 58 LegendMM LegendMM   99.72     LegendNANA
15:00 0.4 -6.4 60 LegendMM LegendMM   99.69     LegendNANA
16:00 -0.6 -6.1 67 LegendMM LegendMM   99.70     LegendNANA
17:00 -0.5 -5.8 67 LegendMM LegendMM   99.68     LegendNANA
18:00 -0.6 -5.7 69 LegendMM LegendMM   99.64     LegendNANA
19:00 -0.5 -5.2 71 LegendMM LegendMM   99.59     LegendNANA
20:00 -0.1 -3.9 76 LegendMM LegendMM   99.53     LegendNANA
21:00 0.6 -3.0 77 LegendMM LegendMM   99.53     LegendNANA
22:00 1.1 -2.4 77 LegendMM LegendMM   99.45     LegendNANA
23:00 1.2 -3.0 73 LegendMM LegendMM   99.35     LegendNANA

Notes on Data Quality.

Legend

  • E = Estimated
  • M = Missing
  • NA = Not Available
Date modified: